Wellsville, NY

6:10 AM EDT on June 26, 2017 (GMT -0400)
Wellsville Municipal-Tarantine

Weather History for KELZ - December, 2013

Change the Weather History Date:

Tuesday, December 3, 2013

  Actual Average (KDSV) Record (KDSV)
Temperature  
Mean Temperature 36 °F -  
Max Temperature 42 °F 41 °F 69 °F (1970)
Min Temperature 30 °F 24 °F -1 °F (1976)
Degree Days  
Heating Degree Days 29    
Moisture  
Dew Point 29 °F    
Average Humidity 84    
Maximum Humidity 93    
Minimum Humidity 65    
Precipitation  
Precipitation 0.00 in - - ()
Sea Level Pressure  
Sea Level Pressure 29.93 in    
Wind  
Wind Speed 2 mph (SSE)    
Max Wind Speed 7 mph    
Max Gust Speed -    
Visibility 6 miles    
Events      
Averages and records for this station are not official NWS values.
T = Trace of Precipitation, MM = Missing Value Source: NWS Daily Summary

Daily Weather History Graph

Daily Weather History Graph

Search for Another Location

Airport or City:

Trip Planner

Search our weather history database for the weather conditions in past years. The results will help you decide how hot, cold, wet, or windy it might be!

Date:

Astronomy

Dec. 03, 2013 Rise Set
Actual Time 7:23 AM EST 4:40 PM EST
Civil Twilight 6:51 AM EST 5:11 PM EST
Nautical Twilight 6:16 AM EST 5:46 PM EST
Astronomical Twilight 5:43 AM EST 6:20 PM EST
Moon 7:49 AM EST (12/3) 5:42 PM EST (12/3)
Length of Visible Light 10h 20m
Length of Day
9h 17m
New Moon, 1% of the Moon is Illuminated
Dec 3
New Moon
Dec 9
First Quarter
Dec 17
Full
Dec 25
Last Quarter
Jan 1
New

Hourly Weather History & Observations

Time (EST) Temp. Windchill Dew Point Humidity Pressure Visibility Wind Dir Wind Speed Gust Speed Precip Events Conditions
12:09 AM 32.0 °F 28.7 °F 28.4 °F 87% 29.84 in 5.0 mi North 3.5 mph - N/A   Overcast
12:56 AM 32.0 °F - 27.0 °F 82% 29.90 in 8.0 mi Calm Calm - N/A   Overcast
1:56 AM 32.0 °F - 26.1 °F 79% 29.91 in 10.0 mi Calm Calm - N/A   Overcast
2:56 AM 30.9 °F 27.5 °F 26.1 °F 82% 29.92 in 10.0 mi North 3.5 mph - N/A   Overcast
3:30 AM 30.2 °F - 26.6 °F 86% 29.86 in 10.0 mi Calm Calm - N/A   Overcast
3:56 AM 30.9 °F - 26.1 °F 82% 29.91 in 9.0 mi Calm Calm - N/A   Overcast
4:56 AM 30.0 °F - 27.0 °F 88% 29.92 in 6.0 mi Calm Calm - N/A   Overcast
5:56 AM 30.0 °F - 27.0 °F 88% 29.93 in 3.0 mi Calm Calm - N/A   Overcast
6:56 AM 30.9 °F - 27.0 °F 85% 29.94 in 2.5 mi Calm Calm - N/A   Overcast
7:18 AM 30.2 °F - 28.4 °F 93% 29.88 in 3.0 mi Calm Calm - N/A   Overcast
7:42 AM 30.2 °F - 28.4 °F 93% 29.88 in 2.0 mi Calm Calm - N/A   Overcast
7:56 AM 30.9 °F - 28.0 °F 89% 29.95 in 2.5 mi Calm Calm - N/A   Overcast
8:06 AM 30.2 °F - 28.4 °F 93% 29.89 in 3.0 mi Calm Calm - N/A   Overcast
8:56 AM 30.9 °F - 28.0 °F 89% 29.95 in 4.0 mi Calm Calm - N/A   Overcast
9:03 AM 30.2 °F - 28.4 °F 93% 29.89 in 4.0 mi Calm Calm - N/A   Overcast
9:56 AM 33.1 °F 30.0 °F 28.9 °F 85% 29.97 in 5.0 mi SSE 3.5 mph - N/A   Overcast
10:10 AM 33.8 °F 29.6 °F 28.4 °F 81% 29.91 in 6.0 mi SSE 4.6 mph - N/A   Haze
10:56 AM 35.1 °F 32.2 °F 30.9 °F 85% 29.96 in 7.0 mi Variable 3.5 mph - N/A   Overcast
11:56 AM 37.0 °F 33.3 °F 32.0 °F 82% 29.95 in 7.0 mi WSW 4.6 mph - N/A   Overcast
12:34 PM 37.4 °F 32.1 °F 33.8 °F 87% 29.87 in 9.0 mi SSW 6.9 mph - N/A   Partly Cloudy
12:56 PM 39.0 °F 34.8 °F 33.1 °F 79% 29.92 in 10.0 mi SSW 5.8 mph - N/A   Clear
1:56 PM 42.1 °F 39.2 °F 30.9 °F 65% 29.93 in 10.0 mi SW 4.6 mph - N/A   Partly Cloudy
2:56 PM 39.9 °F - 30.9 °F 70% 29.94 in 10.0 mi Calm Calm - N/A   Overcast
3:56 PM 39.9 °F - 30.9 °F 70% 29.96 in 10.0 mi Calm Calm - N/A   Clear
4:56 PM 39.0 °F - 30.9 °F 73% 29.96 in 10.0 mi Calm Calm - N/A   Clear
5:56 PM 36.0 °F 33.3 °F 30.0 °F 79% 29.98 in 10.0 mi North 3.5 mph - N/A   Clear
6:56 PM 37.0 °F - 30.9 °F 79% 29.99 in 10.0 mi Calm Calm - N/A   Overcast
7:56 PM 35.1 °F 32.2 °F 30.0 °F 82% 29.99 in 9.0 mi ESE 3.5 mph - N/A   Clear
8:56 PM 36.0 °F 33.3 °F 30.9 °F 82% 30.00 in 10.0 mi ESE 3.5 mph - N/A   Partly Cloudy
9:56 PM 33.1 °F - 30.0 °F 89% 30.00 in 1.8 mi Calm Calm - N/A   Overcast
10:07 PM 33.8 °F - 30.2 °F 87% 29.93 in 3.0 mi Calm Calm - N/A   Mostly Cloudy
10:56 PM 34.0 °F - 30.9 °F 89% 29.99 in 5.0 mi Calm Calm - N/A   Overcast
11:14 PM 33.8 °F 30.8 °F 30.2 °F 87% 29.93 in 2.5 mi SE 3.5 mph - N/A   Overcast
11:24 PM 33.8 °F - 30.2 °F 87% 29.93 in 4.0 mi Calm Calm - N/A   Overcast
11:56 PM 34.0 °F - 30.0 °F 85% 29.99 in 4.0 mi Calm Calm - N/A   Mostly Cloudy